,,Stat6,,Stat2,,Stat8,,Stat9,,Stat10,,Wind1,,Wind1,
time,status,PA1M_AVG,status,PR1M_SUM,status,RH1M_AVG,status,SR1M_AVG,status,TA1M_AVG,status,W1dAve1m,status,W1sAve1m,
2008-01-01, 00:00:00,VALID,916.3,VALID,0,VALID,91.3877,VALID,-0.101885,VALID,18.8236,VALID,122,VALID,0.703835,
2008-01-01, 00:01:00,VALID,916.269,VALID,0,VALID,91.0494,VALID,-0.101885,VALID,18.7877,VALID,92,VALID,0.591602,
2008-01-01, 00:02:00,VALID,916.263,VALID,0,VALID,91.2058,VALID,-0.0849042,VALID,18.642,VALID,73,VALID,0.798633,
2008-01-01, 00:03:00,VALID,916.26,VALID,0,VALID,91.8658,VALID,-0.0679233,VALID,18.4928,VALID,72,VALID,0.744186,
2008-01-01, 00:04:00,VALID,916.248,VALID,0,VALID,92.4965,VALID,-0.118866,VALID,18.4244,VALID,72,VALID,0.652344,
2008-01-01, 00:05:00,VALID,916.244,VALID,0,VALID,93.0077,VALID,-0.0679233,VALID,18.398,VALID,73,VALID,0.729106,
2008-01-01, 00:06:00,VALID,916.233,VALID,0,VALID,93.3231,VALID,-0.0849042,VALID,18.4112,VALID,96,VALID,0.821528,
2008-01-01, 00:07:00,VALID,916.203,VALID,0,VALID,93.3536,VALID,-0.0849042,VALID,18.4634,VALID,96,VALID,0.931127,
2008-01-01, 00:08:00,VALID,916.179,VALID,0,VALID,93.3739,VALID,-0.0849042,VALID,18.5252,VALID,108,VALID,1.15608,
2008-01-01, 00:09:00,VALID,916.157,VALID,0,VALID,92.9301,VALID,-0.101885,VALID,18.6355,VALID,127,VALID,1.18322,
2008-01-01, 00:10:00,VALID,916.142,VALID,0,VALID,92.3668,VALID,-0.101885,VALID,18.7226,VALID,140,VALID,1.16552,
2008-01-01, 00:11:00,VALID,916.133,VALID,0,VALID,92.0693,VALID,-0.101885,VALID,18.768,VALID,132,VALID,1.50056,
2008-01-01, 00:12:00,VALID,916.12,VALID,0,VALID,91.745,VALID,-0.0339617,VALID,18.8389,VALID,136,VALID,1.55176,
2008-01-01, 00:13:00,VALID,916.124,VALID,0,VALID,91.3088,VALID,-0.0169808,VALID,18.9,VALID,139,VALID,1.26403,
2008-01-01, 00:14:00,VALID,916.108,VALID,0,VALID,91.1512,VALID,0,VALID,18.9292,VALID,141,VALID,1.44005,
2008-01-01, 00:15:00,VALID,916.085,VALID,0,VALID,90.9909,VALID,0.0339617,VALID,18.9355,VALID,142,VALID,1.15625,
2008-01-01, 00:16:00,VALID,916.066,VALID,0,VALID,90.9261,VALID,0,VALID,18.926,VALID,137,VALID,1.16425,
2008-01-01, 00:17:00,VALID,916.032,VALID,0,VALID,91.0113,VALID,0,VALID,18.9005,VALID,133,VALID,1.56303,
2008-01-01, 00:18:00,VALID,915.999,VALID,0,VALID,91.0838,VALID,-0.0169808,VALID,18.8544,VALID,132,VALID,1.40585,
2008-01-01, 00:19:00,VALID,915.988,VALID,0,VALID,91.2885,VALID,0.0169808,VALID,18.8087,VALID,136,VALID,1.40816,
2008-01-01, 00:20:00,VALID,915.958,VALID,0,VALID,91.5275,VALID,0.0169808,VALID,18.7633,VALID,143,VALID,1.52891,
2008-01-01, 00:21:00,VALID,915.958,VALID,0,VALID,91.6585,VALID,0.0169808,VALID,18.7538,VALID,140,VALID,1.49818,
2008-01-01, 00:22:00,VALID,915.946,VALID,0,VALID,91.7768,VALID,0.0169808,VALID,18.7309,VALID,143,VALID,1.51944,
2008-01-01, 00:23:00,VALID,915.945,VALID,0,VALID,91.8785,VALID,0.0169808,VALID,18.7247,VALID,144,VALID,1.49564,
2008-01-01, 00:24:00,VALID,915.936,VALID,0,VALID,91.8951,VALID,0,VALID,18.7214,VALID,142,VALID,1.59766,
2008-01-01, 00:25:00,VALID,915.942,VALID,0,VALID,91.8582,VALID,0.0169808,VALID,18.7279,VALID,135,VALID,1.61998,
2008-01-01, 00:26:00,VALID,915.954,VALID,0,VALID,91.9332,VALID,0.0509425,VALID,18.7084,VALID,135,VALID,1.5119,
2008-01-01, 00:27:00,VALID,915.958,VALID,0,VALID,92.0565,VALID,-0.0339617,VALID,18.6834,VALID,135,VALID,1.78979,
2008-01-01, 00:28:00,VALID,915.96,VALID,0,VALID,92.2028,VALID,-0.0509425,VALID,18.658,VALID,130,VALID,1.45293,
2008-01-01, 00:29:00,VALID,915.982,VALID,0,VALID,92.3872,VALID,-0.0679233,VALID,18.6223,VALID,139,VALID,1.58557,
2008-01-01, 00:30:00,VALID,915.983,VALID,0,VALID,92.4635,VALID,-0.0509425,VALID,18.5993,VALID,137,VALID,1.16406,
2008-01-01, 00:31:00,VALID,915.976,VALID,0,VALID,92.541,VALID,-0.0509425,VALID,18.5801,VALID,136,VALID,0.990371,
2008-01-01, 00:32:00,VALID,915.974,VALID,0,VALID,92.719,VALID,-0.0849042,VALID,18.5315,VALID,132,VALID,1.13938,
2008-01-01, 00:33:00,VALID,915.977,VALID,0,VALID,92.9721,VALID,-0.0169808,VALID,18.5085,VALID,131,VALID,1.43118,
2008-01-01, 00:34:00,VALID,915.966,VALID,0,VALID,92.9225,VALID,-0.0169808,VALID,18.5053,VALID,133,VALID,1.24833,
2008-01-01, 00:35:00,VALID,915.962,VALID,0,VALID,93.145,VALID,-0.0679233,VALID,18.4698,VALID,123,VALID,1.28702,
2008-01-01, 00:36:00,VALID,915.962,VALID,0,VALID,93.3027,VALID,-0.118866,VALID,18.4668,VALID,128,VALID,1.38655,
2008-01-01, 00:37:00,VALID,915.964,VALID,0,VALID,93.3841,VALID,-0.0849042,VALID,18.4569,VALID,126,VALID,1.35844,
2008-01-01, 00:38:00,VALID,915.961,VALID,0,VALID,93.4489,VALID,-0.0339617,VALID,18.4631,VALID,125,VALID,1.37909,
2008-01-01, 00:39:00,VALID,915.959,VALID,0,VALID,93.3637,VALID,-0.0849042,VALID,18.4763,VALID,127,VALID,1.1276,
2008-01-01, 00:40:00,VALID,915.955,VALID,0,VALID,93.3994,VALID,-0.0849042,VALID,18.4863,VALID,132,VALID,1.23398,
2008-01-01, 00:41:00,VALID,915.956,VALID,0,VALID,93.4362,VALID,-0.0509425,VALID,18.499,VALID,128,VALID,1.20351,
2008-01-01, 00:42:00,VALID,915.941,VALID,0,VALID,93.3879,VALID,-0.0339617,VALID,18.5018,VALID,124,VALID,1.2859,
2008-01-01, 00:43:00,VALID,915.917,VALID,0,VALID,93.3981,VALID,-0.0679233,VALID,18.5085,VALID,127,VALID,1.21875,
2008-01-01, 00:44:00,VALID,915.891,VALID,0,VALID,93.3154,VALID,-0.0679233,VALID,18.5115,VALID,127,VALID,1.39717,
2008-01-01, 00:45:00,VALID,915.872,VALID,0,VALID,93.3472,VALID,-0.0339617,VALID,18.4921,VALID,137,VALID,1.59618,
2008-01-01, 00:46:00,VALID,915.852,VALID,0,VALID,93.4311,VALID,-0.0679233,VALID,18.5023,VALID,140,VALID,1.82958,
2008-01-01, 00:47:00,VALID,915.838,VALID,0,VALID,93.3396,VALID,-0.0679233,VALID,18.5243,VALID,139,VALID,1.9802,
2008-01-01, 00:48:00,VALID,915.82,VALID,0,VALID,93.0865,VALID,-0.0509425,VALID,18.5572,VALID,137,VALID,1.8959,
2008-01-01, 00:49:00,VALID,915.799,VALID,0,VALID,92.836,VALID,-0.0509425,VALID,18.5926,VALID,129,VALID,1.60069,
2008-01-01, 00:50:00,VALID,915.778,VALID,0,VALID,92.6504,VALID,-0.0509425,VALID,18.5898,VALID,126,VALID,1.37333,
2008-01-01, 00:51:00,VALID,915.771,VALID,0,VALID,92.6898,VALID,-0.0339617,VALID,18.541,VALID,110,VALID,1.30689,
2008-01-01, 00:52:00,VALID,915.752,VALID,0,VALID,92.8182,VALID,-0.0509425,VALID,18.4826,VALID,110,VALID,1.1896,
2008-01-01, 00:53:00,VALID,915.741,VALID,0,VALID,93.0077,VALID,-0.0679233,VALID,18.4274,VALID,105,VALID,1.1069,
2008-01-01, 00:54:00,VALID,915.72,VALID,0,VALID,93.2684,VALID,0,VALID,18.3494,VALID,106,VALID,1.17533,
2008-01-01, 00:55:00,VALID,915.687,VALID,0,VALID,93.5163,VALID,-0.0169808,VALID,18.281,VALID,107,VALID,1.05905,
2008-01-01, 00:56:00,VALID,915.665,VALID,0,VALID,93.908,VALID,-0.0339617,VALID,18.2199,VALID,113,VALID,1.30785,
2008-01-01, 00:57:00,VALID,915.641,VALID,0,VALID,94.1992,VALID,-0.0339617,VALID,18.171,VALID,115,VALID,1.443,
2008-01-01, 00:58:00,VALID,915.633,VALID,0,VALID,94.4955,VALID,-0.0509425,VALID,18.1353,VALID,122,VALID,1.43102,
2008-01-01, 00:59:00,VALID,915.629,VALID,0,VALID,94.6417,VALID,-0.0169808,VALID,18.1455,VALID,127,VALID,1.5346,
2008-01-01, 01:00:00,VALID,915.614,VALID,0,VALID,94.7523,VALID,-0.0509425,VALID,18.1483,VALID,132,VALID,1.6605,
2008-01-01, 01:01:00,VALID,915.595,VALID,0,VALID,94.7816,VALID,-0.0169808,VALID,18.171,VALID,129,VALID,1.52628,
2008-01-01, 01:02:00,VALID,915.564,VALID,0,VALID,94.7663,VALID,-0.0339617,VALID,18.2002,VALID,134,VALID,1.91313,
2008-01-01, 01:03:00,VALID,915.545,VALID,0,VALID,94.6023,VALID,-0.0339617,VALID,18.2618,VALID,139,VALID,1.92361,
2008-01-01, 01:04:00,VALID,915.533,VALID,0,VALID,94.2946,VALID,0,VALID,18.3197,VALID,145,VALID,1.50305,
2008-01-01, 01:05:00,VALID,915.52,VALID,0,VALID,94.1204,VALID,-0.0169808,VALID,18.3392,VALID,152,VALID,1.59837,
2008-01-01, 01:06:00,VALID,915.517,VALID,0,VALID,94.0746,VALID,-0.0339617,VALID,18.3464,VALID,153,VALID,1.57376,
2008-01-01, 01:07:00,VALID,915.534,VALID,0,VALID,94.1216,VALID,-0.0509425,VALID,18.3433,VALID,156,VALID,1.67816,
2008-01-01, 01:08:00,VALID,915.532,VALID,0,VALID,94.1903,VALID,-0.0339617,VALID,18.3362,VALID,155,VALID,1.4907,
2008-01-01, 01:09:00,VALID,915.521,VALID,0,VALID,94.2501,VALID,-0.0339617,VALID,18.3362,VALID,154,VALID,1.47294,
2008-01-01, 01:10:00,VALID,915.5,VALID,0,VALID,94.4624,VALID,-0.0339617,VALID,18.3526,VALID,143,VALID,1.58092,
2008-01-01, 01:11:00,VALID,915.482,VALID,0,VALID,94.4103,VALID,-0.0679233,VALID,18.4017,VALID,143,VALID,1.58117,
2008-01-01, 01:12:00,VALID,915.455,VALID,0,VALID,94.2399,VALID,-0.0339617,VALID,18.4305,VALID,148,VALID,1.32085,
2008-01-01, 01:13:00,VALID,915.432,VALID,0,VALID,94.1585,VALID,-0.0169808,VALID,18.4562,VALID,146,VALID,1.48586,
2008-01-01, 01:14:00,VALID,915.413,VALID,0,VALID,94.0759,VALID,-0.0339617,VALID,18.4826,VALID,148,VALID,1.25527,
2008-01-01, 01:15:00,VALID,915.391,VALID,0,VALID,94.0263,VALID,-0.0679233,VALID,18.4986,VALID,150,VALID,1.16823,
2008-01-01, 01:16:00,VALID,915.388,VALID,0,VALID,93.9678,VALID,-0.0849042,VALID,18.5023,VALID,152,VALID,1.14879,
2008-01-01, 01:17:00,VALID,915.362,VALID,0,VALID,94.0339,VALID,-0.0509425,VALID,18.499,VALID,156,VALID,1.371,
2008-01-01, 01:18:00,VALID,915.351,VALID,0,VALID,94.1445,VALID,-0.0509425,VALID,18.5088,VALID,152,VALID,1.43501,
2008-01-01, 01:19:00,VALID,915.325,VALID,0,VALID,94.0822,VALID,-0.0339617,VALID,18.5412,VALID,157,VALID,1.30926,
2008-01-01, 01:20:00,VALID,915.33,VALID,0,VALID,93.9118,VALID,-0.0679233,VALID,18.5569,VALID,158,VALID,1.21309,
2008-01-01, 01:21:00,VALID,915.334,VALID,0,VALID,93.8406,VALID,-0.0849042,VALID,18.5639,VALID,156,VALID,1.31068,
2008-01-01, 01:22:00,VALID,915.339,VALID,0,VALID,93.9525,VALID,-0.0849042,VALID,18.5764,VALID,150,VALID,1.51563,
2008-01-01, 01:23:00,VALID,915.339,VALID,0,VALID,93.8826,VALID,-0.0509425,VALID,18.6125,VALID,149,VALID,1.40625,
2008-01-01, 01:24:00,VALID,915.318,VALID,0,VALID,93.6906,VALID,-0.0679233,VALID,18.645,VALID,149,VALID,1.59115,
2008-01-01, 01:25:00,VALID,915.316,VALID,0,VALID,93.5901,VALID,-0.0339617,VALID,18.658,VALID,151,VALID,1.56771,
2008-01-01, 01:26:00,VALID,915.301,VALID,0,VALID,93.4935,VALID,-0.0849042,VALID,18.6547,VALID,147,VALID,1.57793,
2008-01-01, 01:27:00,VALID,915.295,VALID,0,VALID,93.5367,VALID,-0.0509425,VALID,18.6637,VALID,149,VALID,1.52144,
2008-01-01, 01:28:00,VALID,915.286,VALID,0,VALID,93.5227,VALID,0.0169808,VALID,18.6633,VALID,147,VALID,1.65498,
2008-01-01, 01:29:00,VALID,915.266,VALID,0,VALID,93.4922,VALID,0.0339617,VALID,18.6468,VALID,150,VALID,1.19904,
2008-01-01, 01:30:00,VALID,915.261,VALID,0,VALID,93.4553,VALID,0.0169808,VALID,18.6436,VALID,152,VALID,1.3306,
2008-01-01, 01:31:00,VALID,915.235,VALID,0,VALID,93.538,VALID,0.0169808,VALID,18.6109,VALID,152,VALID,1.72053,
2008-01-01, 01:32:00,VALID,915.24,VALID,0,VALID,93.585,VALID,0,VALID,18.5949,VALID,157,VALID,1.56136,
2008-01-01, 01:33:00,VALID,915.22,VALID,0,VALID,93.5774,VALID,0.0169808,VALID,18.5884,VALID,151,VALID,1.62731,
2008-01-01, 01:34:00,VALID,915.212,VALID,0,VALID,93.4909,VALID,0.0339617,VALID,18.6014,VALID,147,VALID,1.65304,
2008-01-01, 01:35:00,VALID,915.207,VALID,0,VALID,93.4057,VALID,0.0169808,VALID,18.6079,VALID,153,VALID,1.6166,
2008-01-01, 01:36:00,VALID,915.193,VALID,0,VALID,93.3231,VALID,0,VALID,18.6111,VALID,147,VALID,1.35714,
2008-01-01, 01:37:00,VALID,915.204,VALID,0,VALID,93.2887,VALID,0.0339617,VALID,18.6079,VALID,146,VALID,1.46708,
2008-01-01, 01:38:00,VALID,915.208,VALID,0,VALID,93.3154,VALID,0.0339617,VALID,18.6012,VALID,143,VALID,1.53416,
2008-01-01, 01:39:00,VALID,915.199,VALID,0,VALID,93.3269,VALID,0.0509425,VALID,18.585,VALID,140,VALID,1.28348,
2008-01-01, 01:40:00,VALID,915.192,VALID,0,VALID,93.3536,VALID,0.0169808,VALID,18.5588,VALID,138,VALID,1.50744,
2008-01-01, 01:41:00,VALID,915.191,VALID,0,VALID,93.4286,VALID,0,VALID,18.5298,VALID,137,VALID,1.47372,
2008-01-01, 01:42:00,VALID,915.204,VALID,0,VALID,93.4973,VALID,-0.0169808,VALID,18.4914,VALID,139,VALID,1.18146,
2008-01-01, 01:43:00,VALID,915.212,VALID,0,VALID,93.6143,VALID,-0.0849042,VALID,18.4469,VALID,131,VALID,1.13945,
2008-01-01, 01:44:00,VALID,915.208,VALID,0,VALID,93.8114,VALID,-0.101885,VALID,18.4015,VALID,125,VALID,1.15272,
2008-01-01, 01:45:00,VALID,915.205,VALID,0,VALID,94.0224,VALID,-0.101885,VALID,18.3758,VALID,131,VALID,1.42454,
2008-01-01, 01:46:00,VALID,915.201,VALID,0,VALID,94.0301,VALID,-0.0339617,VALID,18.3621,VALID,141,VALID,1.12872,
2008-01-01, 01:47:00,VALID,915.184,VALID,0,VALID,94.0212,VALID,-0.0509425,VALID,18.3554,VALID,144,VALID,1.1609,
2008-01-01, 01:48:00,VALID,915.194,VALID,0,VALID,94.011,VALID,-0.0679233,VALID,18.3526,VALID,144,VALID,0.927734,
2008-01-01, 01:49:00,VALID,915.196,VALID,0,VALID,93.9296,VALID,-0.0509425,VALID,18.3656,VALID,134,VALID,0.920277,
2008-01-01, 01:50:00,VALID,915.179,VALID,0,VALID,93.8991,VALID,-0.0679233,VALID,18.3693,VALID,130,VALID,0.892987,
2008-01-01, 01:51:00,VALID,915.176,VALID,0,VALID,93.7948,VALID,-0.0509425,VALID,18.3723,VALID,129,VALID,0.715116,
2008-01-01, 01:52:00,VALID,915.159,VALID,0,VALID,93.7897,VALID,-0.101885,VALID,18.3758,VALID,125,VALID,0.775,
2008-01-01, 01:53:00,VALID,915.144,VALID,0,VALID,93.7579,VALID,-0.0339617,VALID,18.3751,VALID,117,VALID,0.718349,
2008-01-01, 01:54:00,VALID,915.141,VALID,0,VALID,93.7452,VALID,-0.0509425,VALID,18.3751,VALID,93,VALID,0.899439,
2008-01-01, 01:55:00,VALID,915.135,VALID,0,VALID,93.7211,VALID,-0.0339617,VALID,18.3584,VALID,89,VALID,0.985777,
2008-01-01, 01:56:00,VALID,915.124,VALID,0,VALID,93.8063,VALID,-0.0679233,VALID,18.3528,VALID,97,VALID,0.932231,
2008-01-01, 01:57:00,VALID,915.103,VALID,0,VALID,93.8114,VALID,-0.0509425,VALID,18.3524,VALID,133,VALID,1.28525,
2008-01-01, 01:58:00,VALID,915.111,VALID,0,VALID,93.6995,VALID,-0.0509425,VALID,18.3749,VALID,151,VALID,0.963246,
2008-01-01, 01:59:00,VALID,915.095,VALID,0,VALID,93.5736,VALID,-0.0509425,VALID,18.3915,VALID,132,VALID,0.213299,
2008-01-01, 02:00:00,VALID,915.101,VALID,0,VALID,93.5214,VALID,-0.0339617,VALID,18.3948,VALID,146,VALID,0.763021,
2008-01-01, 02:01:00,VALID,915.096,VALID,0,VALID,93.4744,VALID,-0.0849042,VALID,18.392,VALID,140,VALID,0.888077,
2008-01-01, 02:02:00,VALID,915.102,VALID,0,VALID,93.5011,VALID,-0.0849042,VALID,18.3661,VALID,145,VALID,1.11014,
2008-01-01, 02:03:00,VALID,915.113,VALID,0,VALID,93.5252,VALID,-0.0339617,VALID,18.3394,VALID,137,VALID,0.981136,
2008-01-01, 02:04:00,VALID,915.106,VALID,0,VALID,93.6549,VALID,-0.0169808,VALID,18.3431,VALID,148,VALID,1.16164,
2008-01-01, 02:05:00,VALID,915.104,VALID,0,VALID,93.6766,VALID,-0.101885,VALID,18.3563,VALID,155,VALID,1.19288,
2008-01-01, 02:06:00,VALID,915.107,VALID,0,VALID,93.5176,VALID,-0.0339617,VALID,18.3788,VALID,147,VALID,1.24848,
2008-01-01, 02:07:00,VALID,915.103,VALID,0,VALID,93.3892,VALID,-0.0509425,VALID,18.3983,VALID,142,VALID,1.37441,
2008-01-01, 02:08:00,VALID,915.115,VALID,0,VALID,93.3421,VALID,-0.0169808,VALID,18.421,VALID,143,VALID,1.40216,
2008-01-01, 02:09:00,VALID,915.111,VALID,0,VALID,93.2442,VALID,-0.0509425,VALID,18.4434,VALID,140,VALID,1.28961,
2008-01-01, 02:10:00,VALID,915.113,VALID,0,VALID,93.2506,VALID,-0.0679233,VALID,18.4529,VALID,143,VALID,1.32292,
2008-01-01, 02:11:00,VALID,915.11,VALID,0,VALID,93.159,VALID,-0.0679233,VALID,18.4599,VALID,142,VALID,1.48637,
2008-01-01, 02:12:00,VALID,915.096,VALID,0,VALID,93.1463,VALID,-0.0679233,VALID,18.4596,VALID,145,VALID,1.29778,
2008-01-01, 02:13:00,VALID,915.1,VALID,0,VALID,93.1094,VALID,-0.0679233,VALID,18.4631,VALID,138,VALID,1.3092,
2008-01-01, 02:14:00,VALID,915.083,VALID,0,VALID,93.1298,VALID,-0.0339617,VALID,18.4599,VALID,140,VALID,1.42039,
2008-01-01, 02:15:00,VALID,915.073,VALID,0,VALID,93.1565,VALID,-0.0679233,VALID,18.4402,VALID,136,VALID,1.42254,
2008-01-01, 02:16:00,VALID,915.069,VALID,0,VALID,93.2697,VALID,-0.0509425,VALID,18.4013,VALID,140,VALID,1.27307,
2008-01-01, 02:17:00,VALID,915.065,VALID,0,VALID,93.4731,VALID,-0.0679233,VALID,18.3818,VALID,140,VALID,1.58117,
2008-01-01, 02:18:00,VALID,915.035,VALID,0,VALID,93.4795,VALID,-0.0849042,VALID,18.3758,VALID,141,VALID,1.73471,
2008-01-01, 02:19:00,VALID,915.024,VALID,0,VALID,93.5939,VALID,-0.0509425,VALID,18.3753,VALID,139,VALID,1.77725,
2008-01-01, 02:20:00,VALID,915.011,VALID,0,VALID,93.5965,VALID,-0.0679233,VALID,18.3823,VALID,138,VALID,1.83467,
2008-01-01, 02:21:00,VALID,915.006,VALID,0,VALID,93.6092,VALID,-0.0679233,VALID,18.3855,VALID,133,VALID,1.77896,
2008-01-01, 02:22:00,VALID,914.965,VALID,0,VALID,93.6931,VALID,-0.0849042,VALID,18.3661,VALID,134,VALID,1.87795,
2008-01-01, 02:23:00,VALID,914.956,VALID,0,VALID,93.6613,VALID,-0.0849042,VALID,18.3566,VALID,132,VALID,1.61623,
2008-01-01, 02:24:00,VALID,914.929,VALID,0,VALID,93.8648,VALID,-0.101885,VALID,18.3399,VALID,132,VALID,1.5604,
2008-01-01, 02:25:00,VALID,914.914,VALID,0,VALID,93.8292,VALID,-0.0849042,VALID,18.3563,VALID,132,VALID,1.67472,
2008-01-01, 02:26:00,VALID,914.891,VALID,0,VALID,93.6766,VALID,-0.0849042,VALID,18.3725,VALID,133,VALID,1.46396,
2008-01-01, 02:27:00,VALID,914.884,VALID,0,VALID,93.5876,VALID,-0.0849042,VALID,18.379,VALID,135,VALID,1.39546,
2008-01-01, 02:28:00,VALID,914.863,VALID,0,VALID,93.5278,VALID,-0.0849042,VALID,18.3788,VALID,134,VALID,1.42315,
2008-01-01, 02:29:00,VALID,914.848,VALID,0,VALID,93.4846,VALID,-0.0849042,VALID,18.3888,VALID,138,VALID,1.44822,
2008-01-01, 02:30:00,VALID,914.837,VALID,0,VALID,93.393,VALID,-0.0679233,VALID,18.3816,VALID,138,VALID,1.35191,
2008-01-01, 02:31:00,VALID,914.828,VALID,0,VALID,93.3142,VALID,-0.0849042,VALID,18.3818,VALID,143,VALID,1.46839,
2008-01-01, 02:32:00,VALID,914.835,VALID,0,VALID,93.3854,VALID,-0.0339617,VALID,18.3853,VALID,147,VALID,1.58085,
2008-01-01, 02:33:00,VALID,914.842,VALID,0,VALID,93.3637,VALID,-0.0849042,VALID,18.3885,VALID,148,VALID,1.3931,
2008-01-01, 02:34:00,VALID,914.842,VALID,0,VALID,93.2951,VALID,-0.0509425,VALID,18.405,VALID,143,VALID,1.70458,
2008-01-01, 02:35:00,VALID,914.842,VALID,0,VALID,93.1628,VALID,-0.0509425,VALID,18.421,VALID,139,VALID,1.77759,
2008-01-01, 02:36:00,VALID,914.851,VALID,0,VALID,93.1209,VALID,-0.0679233,VALID,18.4272,VALID,139,VALID,1.62066,
2008-01-01, 02:37:00,VALID,914.859,VALID,0,VALID,93.1501,VALID,-0.0849042,VALID,18.421,VALID,135,VALID,1.69327,
2008-01-01, 02:38:00,VALID,914.856,VALID,0,VALID,93.1132,VALID,-0.101885,VALID,18.4115,VALID,127,VALID,1.46742,
2008-01-01, 02:39:00,VALID,914.851,VALID,0,VALID,93.1934,VALID,-0.0849042,VALID,18.3561,VALID,134,VALID,1.17169,
2008-01-01, 02:40:00,VALID,914.854,VALID,0,VALID,93.4578,VALID,-0.135847,VALID,18.3142,VALID,133,VALID,1.34505,
2008-01-01, 02:41:00,VALID,914.852,VALID,0,VALID,93.5392,VALID,-0.0849042,VALID,18.2789,VALID,128,VALID,0.993331,
2008-01-01, 02:42:00,VALID,914.855,VALID,0,VALID,93.6384,VALID,-0.0339617,VALID,18.2129,VALID,141,VALID,0.985742,
2008-01-01, 02:43:00,VALID,914.849,VALID,0,VALID,93.8686,VALID,0,VALID,18.1701,VALID,147,VALID,0.889291,
2008-01-01, 02:44:00,VALID,914.831,VALID,0,VALID,94.0326,VALID,0.0339617,VALID,18.1182,VALID,141,VALID,1.07292,
2008-01-01, 02:45:00,VALID,914.8,VALID,0,VALID,94.3861,VALID,0.0169808,VALID,18.0953,VALID,139,VALID,1.30196,
2008-01-01, 02:46:00,VALID,914.807,VALID,0,VALID,94.54,VALID,0.0679233,VALID,18.0723,VALID,133,VALID,1.43266,
2008-01-01, 02:47:00,VALID,914.794,VALID,0,VALID,94.7256,VALID,0.0509425,VALID,18.0721,VALID,130,VALID,1.20907,
2008-01-01, 02:48:00,VALID,914.784,VALID,0,VALID,94.774,VALID,0.0169808,VALID,18.0793,VALID,133,VALID,1.30887,
2008-01-01, 02:49:00,VALID,914.773,VALID,0,VALID,94.7167,VALID,0.0339617,VALID,18.0823,VALID,120,VALID,1.1263,
2008-01-01, 02:50:00,VALID,914.765,VALID,0,VALID,94.5743,VALID,0.0169808,VALID,18.0793,VALID,106,VALID,0.805753,
2008-01-01, 02:51:00,VALID,914.772,VALID,0,VALID,94.5603,VALID,0.0679233,VALID,18.0309,VALID,98,VALID,0.710392,
2008-01-01, 02:52:00,VALID,914.747,VALID,0,VALID,94.6659,VALID,0.0169808,VALID,17.9658,VALID,93,VALID,0.680618,
2008-01-01, 02:53:00,VALID,914.737,VALID,0,VALID,94.7778,VALID,0.0679233,VALID,17.9139,VALID,87,VALID,0.680596,
2008-01-01, 02:54:00,VALID,914.703,VALID,0,VALID,94.7905,VALID,0.0339617,VALID,17.8261,VALID,86,VALID,0.731517,
2008-01-01, 02:55:00,VALID,914.689,VALID,0,VALID,95.0842,VALID,0.0509425,VALID,17.7615,VALID,89,VALID,0.666735,
2008-01-01, 02:56:00,VALID,914.671,VALID,0,VALID,95.4721,VALID,0.0679233,VALID,17.7289,VALID,92,VALID,0.79723,
2008-01-01, 02:57:00,VALID,914.649,VALID,0,VALID,95.7162,VALID,-0.0339617,VALID,17.7073,VALID,102,VALID,0.869792,
2008-01-01, 02:58:00,VALID,914.641,VALID,0,VALID,96.0138,VALID,-0.0679233,VALID,17.7175,VALID,125,VALID,0.997024,
2008-01-01, 02:59:00,VALID,914.632,VALID,0,VALID,95.9209,VALID,-0.101885,VALID,17.7177,VALID,121,VALID,0.957403,
2008-01-01, 03:00:00,VALID,914.63,VALID,0,VALID,95.9566,VALID,-0.0339617,VALID,17.7006,VALID,122,VALID,0.815848,
2008-01-01, 03:01:00,VALID,914.617,VALID,0,VALID,95.8141,VALID,-0.0509425,VALID,17.6876,VALID,110,VALID,0.650347,
2008-01-01, 03:02:00,VALID,914.627,VALID,0,VALID,95.7035,VALID,-0.0849042,VALID,17.6591,VALID,103,VALID,0.32298,
2008-01-01, 03:03:00,VALID,914.601,VALID,0,VALID,95.7226,VALID,-0.101885,VALID,17.5973,VALID,98,VALID,0.458576,
2008-01-01, 03:04:00,VALID,914.605,VALID,0,VALID,95.5484,VALID,-0.101885,VALID,17.5102,VALID,97,VALID,0,
2008-01-01, 03:05:00,VALID,914.609,VALID,0,VALID,95.7035,VALID,-0.0679233,VALID,17.4094,VALID,96,VALID,0,
2008-01-01, 03:06:00,VALID,914.604,VALID,0,VALID,96.1536,VALID,-0.101885,VALID,17.3446,VALID,87,VALID,0,
2008-01-01, 03:07:00,VALID,914.605,VALID,0,VALID,96.661,VALID,-0.101885,VALID,17.3219,VALID,82,VALID,0.113554,
2008-01-01, 03:08:00,VALID,914.599,VALID,0,VALID,97.2803,VALID,-0.0679233,VALID,17.3474,VALID,80,VALID,1.05432,
2008-01-01, 03:09:00,VALID,914.61,VALID,0,VALID,97.616,VALID,-0.0679233,VALID,17.4347,VALID,80,VALID,0.898819,
2008-01-01, 03:10:00,VALID,914.615,VALID,0,VALID,97.2472,VALID,-0.0509425,VALID,17.4942,VALID,80,VALID,0.806176,
2008-01-01, 03:11:00,VALID,914.611,VALID,0,VALID,96.6941,VALID,-0.0849042,VALID,17.38,VALID,80,VALID,1.0067,
2008-01-01, 03:12:00,VALID,914.59,VALID,0,VALID,97.3235,VALID,-0.0849042,VALID,17.4124,VALID,78,VALID,1.15803,
2008-01-01, 03:13:00,VALID,914.575,VALID,0,VALID,97.4189,VALID,-0.0679233,VALID,17.4544,VALID,73,VALID,1.28616,
2008-01-01, 03:14:00,VALID,914.552,VALID,0,VALID,97.1277,VALID,-0.101885,VALID,17.4903,VALID,73,VALID,1.32903,
2008-01-01, 03:15:00,VALID,914.527,VALID,0,VALID,97.059,VALID,-0.0679233,VALID,17.4998,VALID,73,VALID,1.17416,
2008-01-01, 03:16:00,VALID,914.522,VALID,0,VALID,96.9268,VALID,-0.0169808,VALID,17.4507,VALID,72,VALID,1.07106,
2008-01-01, 03:17:00,VALID,914.511,VALID,0,VALID,97.3426,VALID,-0.0509425,VALID,17.4768,VALID,88,VALID,0.821378,
2008-01-01, 03:18:00,VALID,914.493,VALID,0,VALID,97.3197,VALID,-0.0509425,VALID,17.5294,VALID,109,VALID,0.867578,
2008-01-01, 03:19:00,VALID,914.486,VALID,0,VALID,97.0984,VALID,-0.0679233,VALID,17.5648,VALID,120,VALID,1.01267,
2008-01-01, 03:20:00,VALID,914.473,VALID,0,VALID,96.9077,VALID,-0.0679233,VALID,17.5871,VALID,132,VALID,1.36337,
2008-01-01, 03:21:00,VALID,914.46,VALID,0,VALID,96.7373,VALID,-0.0679233,VALID,17.6029,VALID,137,VALID,1.61872,
2008-01-01, 03:22:00,VALID,914.483,VALID,0,VALID,96.6076,VALID,-0.0509425,VALID,17.6327,VALID,136,VALID,1.47986,
2008-01-01, 03:23:00,VALID,914.48,VALID,0,VALID,96.4894,VALID,-0.0509425,VALID,17.6489,VALID,143,VALID,1.53144,
2008-01-01, 03:24:00,VALID,914.483,VALID,0,VALID,96.3558,VALID,-0.0509425,VALID,17.6686,VALID,142,VALID,1.21076,
2008-01-01, 03:25:00,VALID,914.499,VALID,0,VALID,96.1651,VALID,-0.0679233,VALID,17.6945,VALID,140,VALID,1.23103,
2008-01-01, 03:26:00,VALID,914.506,VALID,0,VALID,96.0901,VALID,-0.0509425,VALID,17.7108,VALID,134,VALID,1.13136,
2008-01-01, 03:27:00,VALID,914.511,VALID,0,VALID,95.9222,VALID,-0.0339617,VALID,17.739,VALID,129,VALID,1.05226,
2008-01-01, 03:28:00,VALID,914.5,VALID,0,VALID,95.7773,VALID,0.0509425,VALID,17.7379,VALID,131,VALID,1.28746,
2008-01-01, 03:29:00,VALID,914.472,VALID,0,VALID,95.8065,VALID,0.0169808,VALID,17.7548,VALID,132,VALID,1.60884,
2008-01-01, 03:30:00,VALID,914.451,VALID,0,VALID,95.6234,VALID,0,VALID,17.7775,VALID,134,VALID,1.69568,